Weather History for Manistee, MI

Change the Weather History Date:

Sunday, August 12, 2012

  Actual Average Record
Temperature  
Mean Temperature 60 °F -  
Max Temperature 75 °F 77 °F 94 °F (1988)
Min Temperature 46 °F 55 °F 39 °F (1992)
Degree Days  
Heating Degree Days 4    
Growing Degree Days 10 (Base 50)    
Moisture  
Dew Point 53 °F    
Average Humidity 74    
Maximum Humidity 100    
Minimum Humidity 44    
Precipitation  
Precipitation 0.00 in - - ()
Sea Level Pressure  
Sea Level Pressure 30.00 in    
Wind  
Wind Speed 2 mph (West)    
Max Wind Speed 10 mph    
Max Gust Speed -    
Visibility 9 miles    
Events      
Averages and records for this station are not official NWS values.
T = Trace of Precipitation, MM = Missing Value Source: NWS Daily Summary

Daily Weather History Graph

Daily Weather History Graph

Search for Another Location

Airport:

Trip Planner

Search our weather history database for the weather conditions in past years. The results will help you decide how hot, cold, wet, or windy it might be!

Date:

Astronomy

Aug. 12, 2012 Rise Set
Actual Time 6:45 AM EDT 8:53 PM EDT
Civil Twilight 6:13 AM EDT 9:25 PM EDT
Nautical Twilight 5:34 AM EDT 10:04 PM EDT
Astronomical Twilight 4:51 AM EDT 10:47 PM EDT
Moon 1:53 AM EDT (8/12) 5:22 PM EDT (8/12)
Length of Visible Light 15h 11m
Length of Day
14h 08m
Waning Crescent, 24% of the Moon is Illuminated
Aug 12
Waning Crescent
Aug 17
New
Aug 24
First Quarter
Aug 31
Full
Sep 8
Last Quarter

Hourly Weather History & Observations

Time (EDT) Temp. Dew Point Humidity Pressure Visibility Wind Dir Wind Speed Gust Speed Precip Events Conditions
12:15 AM 62.6 °F 55.4 °F 77% 29.98 in 10.0 mi NNW 3.5 mph - N/A   Clear
12:55 AM 55.4 °F 53.6 °F 94% 29.98 in 10.0 mi Calm Calm - N/A   Clear
1:15 AM 53.6 °F 53.6 °F 100% 29.99 in 10.0 mi Calm Calm - N/A   Clear
1:35 AM 55.4 °F 51.8 °F 88% 29.98 in 10.0 mi Calm Calm - N/A   Clear
2:15 AM 53.6 °F 51.8 °F 94% 29.98 in 5.0 mi Calm Calm - N/A   Clear
2:35 AM 51.8 °F 50.0 °F 94% 29.98 in 9.0 mi Calm Calm - N/A   Clear
2:55 AM 51.8 °F 51.8 °F 100% 29.99 in 1.2 mi Calm Calm - N/A   Clear
3:15 AM 51.8 °F 50.0 °F 94% 29.98 in 1.5 mi Calm Calm - N/A   Clear
3:35 AM 51.8 °F 48.2 °F 88% 29.99 in 10.0 mi Calm Calm - N/A   Clear
3:55 AM 51.8 °F 48.2 °F 88% 29.99 in 10.0 mi Calm Calm - N/A   Clear
4:15 AM 51.8 °F 48.2 °F 88% 29.99 in 5.0 mi Calm Calm - N/A   Clear
4:35 AM 51.8 °F 48.2 °F 88% 29.98 in 2.5 mi Calm Calm - N/A   Clear
4:55 AM 50.0 °F 48.2 °F 94% 29.99 in 3.0 mi Calm Calm - N/A   Clear
5:35 AM 48.2 °F 46.4 °F 93% 30.00 in 1.2 mi Calm Calm - N/A   Clear
5:55 AM 48.2 °F 46.4 °F 93% 30.00 in 10.0 mi Calm Calm - N/A   Partly Cloudy
6:15 AM 48.2 °F 46.4 °F 93% 30.00 in 0.5 mi Calm Calm - N/A   Unknown
6:35 AM 48.2 °F 46.4 °F 93% 30.01 in 8.0 mi Calm Calm - N/A   Clear
6:55 AM 48.2 °F 46.4 °F 93% 30.01 in 1.2 mi Calm Calm - N/A   Clear
7:15 AM 46.4 °F 46.4 °F 100% 30.00 in 9.0 mi Calm Calm - N/A   Clear
7:35 AM 48.2 °F 48.2 °F 100% 30.01 in 10.0 mi Calm Calm - N/A   Clear
7:55 AM 51.8 °F 48.2 °F 88% 30.01 in 10.0 mi Calm Calm - N/A   Clear
8:15 AM 51.8 °F 51.8 °F 100% 30.01 in 10.0 mi Calm Calm - N/A   Clear
8:35 AM 53.6 °F 53.6 °F 100% 30.02 in 10.0 mi Calm Calm - N/A   Clear
8:55 AM 55.4 °F 53.6 °F 94% 30.02 in 10.0 mi Calm Calm - N/A   Clear
9:15 AM 59.0 °F 55.4 °F 88% 30.03 in 10.0 mi Calm Calm - N/A   Clear
9:35 AM 62.6 °F 57.2 °F 82% 30.03 in 10.0 mi Calm Calm - N/A   Clear
9:55 AM 66.2 °F 57.2 °F 73% 30.02 in 10.0 mi Calm Calm - N/A   Clear
10:15 AM 69.8 °F 57.2 °F 64% 30.02 in 10.0 mi NNW 5.8 mph - N/A   Clear
10:35 AM 69.8 °F 55.4 °F 60% 30.02 in 10.0 mi NW 6.9 mph - N/A   Clear
10:55 AM 69.8 °F 53.6 °F 56% 30.02 in 10.0 mi WNW 6.9 mph - N/A   Clear
11:15 AM 69.8 °F 55.4 °F 60% 30.02 in 10.0 mi West 4.6 mph - N/A   Clear
11:35 AM 71.6 °F 53.6 °F 53% 30.02 in 10.0 mi WNW 4.6 mph - N/A   Clear
11:55 AM 69.8 °F 53.6 °F 56% 30.02 in 10.0 mi NW 5.8 mph - N/A   Clear
12:15 PM 71.6 °F 53.6 °F 53% 30.02 in 10.0 mi West 5.8 mph - N/A   Clear
12:35 PM 71.6 °F 51.8 °F 50% 30.01 in 10.0 mi WNW 4.6 mph - N/A   Clear
12:55 PM 71.6 °F 53.6 °F 53% 30.01 in 10.0 mi Calm Calm - N/A   Clear
1:15 PM 73.4 °F 53.6 °F 50% 30.01 in 10.0 mi WSW 3.5 mph - N/A   Clear
1:35 PM 73.4 °F 55.4 °F 53% 30.01 in 10.0 mi WSW 6.9 mph - N/A   Clear
1:55 PM 73.4 °F 53.6 °F 50% 30.00 in 10.0 mi SW 6.9 mph - N/A   Clear
2:15 PM 73.4 °F 55.4 °F 53% 30.00 in 10.0 mi West 8.1 mph - N/A   Clear
2:35 PM 73.4 °F 53.6 °F 50% 30.00 in 10.0 mi WSW 8.1 mph - N/A   Clear
2:55 PM 75.2 °F 51.8 °F 44% 29.99 in 10.0 mi West 8.1 mph - N/A   Clear
3:15 PM 75.2 °F 51.8 °F 44% 29.99 in 10.0 mi WSW 6.9 mph - N/A   Clear
3:35 PM 75.2 °F 51.8 °F 44% 29.99 in 10.0 mi West 8.1 mph - N/A   Clear
3:55 PM 73.4 °F 53.6 °F 50% 29.99 in 10.0 mi West 10.4 mph - N/A   Clear
4:15 PM 71.6 °F 55.4 °F 57% 29.99 in 10.0 mi West 10.4 mph - N/A   Clear
4:35 PM 71.6 °F 57.2 °F 60% 29.99 in 10.0 mi West 9.2 mph - N/A   Clear
4:55 PM 71.6 °F 57.2 °F 60% 29.99 in 10.0 mi West 8.1 mph - N/A   Clear
5:15 PM 69.8 °F 57.2 °F 64% 29.98 in 10.0 mi West 5.8 mph - N/A   Clear
5:35 PM 71.6 °F 57.2 °F 60% 29.98 in 10.0 mi West 5.8 mph - N/A   Clear
5:55 PM 71.6 °F 57.2 °F 60% 29.98 in 10.0 mi West 6.9 mph - N/A   Clear
6:15 PM 71.6 °F 57.2 °F 60% 29.98 in 10.0 mi West 5.8 mph - N/A   Clear
6:35 PM 71.6 °F 57.2 °F 60% 29.98 in 10.0 mi WSW 6.9 mph - N/A   Clear
7:15 PM 69.8 °F 55.4 °F 60% 29.98 in 10.0 mi Calm Calm - N/A   Clear
7:35 PM 69.8 °F 55.4 °F 60% 29.98 in 10.0 mi Calm Calm - N/A   Clear
7:55 PM 69.8 °F 55.4 °F 60% 29.98 in 10.0 mi WSW 3.5 mph - N/A   Clear
8:15 PM 68.0 °F 55.4 °F 64% 29.98 in 10.0 mi SW 4.6 mph - N/A   Clear
8:35 PM 66.2 °F 57.2 °F 73% 29.98 in 10.0 mi SW 3.5 mph - N/A   Clear
8:55 PM 66.2 °F 57.2 °F 73% 29.98 in 10.0 mi Calm Calm - N/A   Clear
9:15 PM 64.4 °F 57.2 °F 77% 29.98 in 10.0 mi Calm Calm - N/A   Clear
9:35 PM 64.4 °F 57.2 °F 77% 29.98 in 10.0 mi Calm Calm - N/A   Clear
9:55 PM 62.6 °F 57.2 °F 82% 29.99 in 10.0 mi Calm Calm - N/A   Clear
10:15 PM 62.6 °F 57.2 °F 82% 29.99 in 10.0 mi Calm Calm - N/A   Clear
10:35 PM 62.6 °F 57.2 °F 82% 29.99 in 10.0 mi Calm Calm - N/A   Clear
10:55 PM 62.6 °F 57.2 °F 82% 29.98 in 10.0 mi Calm Calm - N/A   Clear
11:15 PM 62.6 °F 57.2 °F 82% 29.98 in 10.0 mi Calm Calm - N/A   Clear
11:35 PM 60.8 °F 57.2 °F 88% 29.98 in 10.0 mi East 3.5 mph - N/A   Clear
11:55 PM 60.8 °F 57.2 °F 88% 29.98 in 10.0 mi East 3.5 mph - N/A   Clear